Location: Sungai Binio Temani
(2.7500°N, 113.3167°E)
Time: 05:27:38
(UTC+00:00)

Daily predictions for brighter satellites

Satellite Brightness Start Highest point End
(mag) Time Altitude Azimuth Time Altitude Azimuth Time Altitude Azimuth
GPS 2-17 Rocket1 3.3 10:44:39 10° WNW 10:49:13 66° SSW 10:53:39 10° ESE
CZ-2C R/B 3.6 10:46:49 10° S 10:50:24 53° WSW 10:54:01 10° NNW
IGS 5A 4.1 10:48:37 10° SE 10:52:17 32° ENE 10:55:56 10° NNE
Cosmos 2098 Rocket 3.7 10:49:47 10° S 10:55:26 54° E 11:00:06 10° NNE
Longmarch 3A Rocket 4.0 10:52:26 10° NW 10:58:56 19° N 11:01:45 10° NE
SKYMED 3 4.4 10:55:13 10° NNE 10:59:19 78° ESE 11:03:28 10° S
SL-08 R/B 4.2 10:59:16 10° N 11:04:01 57° WNW 11:08:50 10° SSW
FALCON 9 R/B 2.3 11:02:17 10° S 11:04:14 19° SE 11:06:53 11° E
Cosmos 1328 4.1 11:04:31 10° NNE 11:08:07 40° E 11:11:45 10° SSE
Cosmos 2341 Rocket 4.1 11:03:26 10° N 11:09:26 53° E 11:15:26 10° SSE
SJ 16-02 1.8 11:06:41 10° N 11:10:40 38° ENE 11:14:40 10° SSE
ARIANE 5 R/B 4.4 02:59:31 10° W 11:14:30 67° S 11:22:08 16° ESE
ARIANE 3 DEB 3.6 11:08:45 10° W 11:14:59 55° N 11:17:54 14° ENE
ARIANE R/B 3.7 11:11:20 10° WNW 11:15:12 47° N 11:18:33 13° ENE
DELTA 2 R/B (1) 3.9 11:12:20 10° NNW 11:17:44 50° NE 11:21:40 18° ESE
IKONOS-2 4.5 11:17:07 10° NNE 11:21:13 57° ESE 11:25:18 10° S
Cosmos 2218 Rocket 4.2 11:15:52 10° NNE 11:21:55 50° E 11:27:53 10° SSE
ADEOS Rocket 2.9 11:16:31 10° SSE 11:22:06 54° ENE 11:27:26 10° N
Landsat 7 4.3 11:20:01 10° SE 11:24:19 37° ENE 11:28:37 10° N
GPS 2-14 Rocket1 2.6 11:21:22 10° W 11:24:38 55° SSW 11:26:18 25° SE
Cosmos 968 Rocket 4.1 11:24:02 10° NNW 11:29:04 58° WSW 11:34:10 10° S
deb Centaur AC-2 4.3 11:24:27 10° NW 11:29:06 82° NNE 11:32:26 24° ESE
Radarsat Rocket 4.3 11:22:12 10° SSE 11:29:23 90° W 11:35:41 10° NNW
Meteor PRIRODA 3.7 11:28:19 23° SE 11:30:03 44° E 11:33:19 10° N
CZ-4B R/B 3.4 11:34:36 10° S 11:39:38 85° W 11:44:30 10° NNW
Meteor 1-21 Rocket 4.2 11:36:10 10° N 11:42:02 90° WNW 11:47:48 10° S
Ariane 3 Deb 2.6 11:40:17 10° WSW 11:44:25 41° S 11:44:48 39° SSE
Cosmos 2151 Rocket 3.4 11:40:13 10° S 11:44:36 77° E 11:48:57 10° N
Cosmos 1833 4.1 11:39:08 10° N 11:44:38 61° ENE 11:47:52 25° SSE
Delta 7925 Rocket 4.4 11:41:19 10° W 11:45:45 36° SSW 11:48:27 23° SSE
Hubble Space Telescope 2.7 11:44:34 10° NNW 11:47:07 16° NNE 11:47:21 16° NNE
Palapa 6 Rocket 2.4 11:44:58 10° WNW 11:48:45 75° NNE 11:49:11 64° E
ADEOS 3.4 11:44:18 10° SSE 11:49:30 81° E 11:54:42 10° N
Lacrosse 5 2.5 11:45:58 10° S 11:49:49 35° SE 11:49:49 35° SE
Cosmos 1025 Rocket 4.4 11:48:56 10° NNW 11:53:02 40° W 11:57:07 10° SSW
